sat.trackr.live / text

‹ back to catalog

STARLINK-37289

NORAD 68545 · 2026-070D

PAYLOAD ACTIVE UNKNOWN

§ Identity

Operator
Country
US
Launch date
2026-04-02
Launch site
AFETR
Launch vehicle
Mass (kg)
RCS (m²)

Purposes: comms

External: N2YO · Heavens-Above · Gunter

§ Orbital elements

Epoch: 2026-05-25T04:00:03.998880Z

Period
93.85 min
Inclination
53.1604°
Eccentricity
0.0001370
Mean motion
15.34359914 rev/d
Perigee alt
461.9 km
Apogee alt
463.8 km
Semi-major
6,841.0 km
B*
5.6949e-4
RAAN
7.1381°
Arg perigee
83.1070°
Mean anomaly
35.1501°
Rev number
580

§ Raw data

STARLINK-372891 68545U 26070D   26145.16671295  .00018889  00000+0  56949-3 0  99972 68545  53.1604   7.1381 0001370  83.1070  35.1501 15.34359914  5801

JSON: /api/v1/satellites/68545 · /tle

For live sub-satellite position, see the globe view (requires WebGL).

§ Visibility from observer

Set your observer location to see the next 7 days of passes ≥ 10°. The values pass through the URL so the page stays shareable.

No JS? Fill the form by hand. The geolocation button needs JavaScript.